Location: Passau
(48.5721°N, 13.4363°E)
Time: 01:08:46
(UTC+01:00)

ISS - Pass Details

Date: 04 October 2020
Orbit: 417 x 420 km, 51.6° (Epoch: 27 October)

Event Time Altitude Azimuth Distance (km) Brightness Sun altitude
Rises 20:20:06 0° 288° (WNW) 2,370 1.8 -17.6°
Reaches altitude 10° 20:22:23 10° 276° (W) 1,503 0.3 -17.9°
Maximum altitude 20:25:17 27° 217° (SW) 848 -2.0 -18.4°
Enters shadow 20:26:29 21° 182° (S) 990 -2.0 -18.6°
